Tracking 30995 objects as of 7-Jul-2025
HD Live streaming from Space Station
objects crossing your sky now

DELTA 1 DEB

Track DELTA 1 DEB now!
10-day predictions


NORAD ID: 9978
Int'l Code: 1973-086GH
Perigee: 1,501.3 km
Apogee: 1,585.6 km
Inclination: 102.0 °
Period: 116.8 minutes
Semi major axis: 7914 km
RCS: 0.0391 m2 (small)
Launch date: November 6, 1973
Source: United States (US)
Launch site: AIR FORCE WESTERN TEST RANGE (AFWTR)

Note: This is SATELLITE DEBRIS
Your satellite tracking list
COSMOS 1275 DEB
Track 1 satellite(s)




NASA's NSSDC Master Catalog

Two Line Element Set (TLE):
1 09978U 73086GH  25186.38583675  .00000305  00000-0  28499-2 0  9996
2 09978 102.0289 131.8027 0053283 223.8622 261.0970 12.33021244249917
Source of the keplerian elements: AFSPC